Voltar ao catálogo

PIONEER 6

AtivoCiênciaHCO
NORAD 1841·PAYLOAD·🇺🇸 United States

Lançado Dec 16, 1965 de Cape Canaveral Space Force Station

Loading…

TLE

ObsoletoSource: Space-Track

Época: Mar 3, 1969, 05:45 UTC

1 01841U 65105  A 69062.24016186  .00026931 +00000-0 +00000-0 0  9993
2 01841 056.0255 139.7498 0005710 268.1781 091.8503 15.31706145201334

Acompanhe PIONEER 6 em tempo real com AllMySat

Download on the App Store